This is the latest recevied weather packets stored in our database for station/object N1ICS-1. If no packets are shown the sender has not sent any weather packets the latest 10 day(s).
| Time | Temp. | Humidity | Pressure | Rain* | Wind** | Luminosity | Snow |
|---|---|---|---|---|---|---|---|
| 1777941602 | 20.56° C | 61% | 1004.3 hPa | 0 mm | - | 2 W/m² | - |
| 1777941301 | 20.56° C | 61% | 1004.5 hPa | 0 mm | - | 3 W/m² | - |
| 1777941001 | 20.56° C | 61% | 1004.3 hPa | 0 mm | - | 4 W/m² | - |
| 1777940702 | 20.56° C | 62% | 1004.4 hPa | 0 mm | - | 6 W/m² | - |
| 1777940401 | 21.11° C | 60% | 1004.4 hPa | 0 mm | - | 9 W/m² | - |
| 1777940102 | 21.11° C | 60% | 1004.6 hPa | 0 mm | - | 16 W/m² | - |
| 1777939802 | 21.11° C | 60% | 1004.4 hPa | 0 mm | - | 18 W/m² | - |
| 1777939502 | 21.11° C | 59% | 1004.5 hPa | 0 mm | - | 22 W/m² | - |
| 1777939202 | 21.11° C | 59% | 1004.2 hPa | 0 mm | - | 33 W/m² | - |
| 1777938902 | 21.11° C | 58% | 1004.3 hPa | 0 mm | - | 43 W/m² | - |
| 1777938602 | 21.11° C | 57% | 1004.5 hPa | 0 mm | - | 44 W/m² | - |
| 1777938302 | 21.11° C | 57% | 1004.6 hPa | 0 mm | - | 41 W/m² | - |
| 1777938001 | 21.67° C | 56% | 1004.5 hPa | 0 mm | - | 52 W/m² | - |
| 1777937702 | 21.67° C | 54% | 1004.6 hPa | 0 mm | - | 84 W/m² | - |
| 1777937402 | 21.67° C | 55% | 1004.5 hPa | 0 mm | - | 82 W/m² | - |
| 1777937101 | 21.67° C | 54% | 1004.6 hPa | 0 mm | - | 93 W/m² | - |
| 1777936802 | 22.22° C | 53% | 1004.6 hPa | 0 mm | - | 70 W/m² | - |
| 1777936502 | 22.78° C | 52% | 1004.7 hPa | 0 mm | - | 66 W/m² | - |
| 1777936202 | 23.33° C | 50% | 1004.8 hPa | 0 mm | - | 135 W/m² | - |
| 1777935902 | 23.33° C | 49% | 1004.7 hPa | 0 mm | - | 149 W/m² | - |
| 1777935603 | 23.33° C | 50% | 1004.8 hPa | 0 mm | - | 161 W/m² | - |
| 1777935301 | 23.89° C | 48% | 1004.7 hPa | 0 mm | - | 170 W/m² | - |
| 1777935002 | 23.89° C | 47% | 1004.8 hPa | 0 mm | - | 188 W/m² | - |
| 1777934702 | 23.89° C | 47% | 1004.8 hPa | 0 mm | - | 200 W/m² | - |
| 1777934401 | 23.89° C | 46% | 1004.7 hPa | 0 mm | - | 212 W/m² | - |
* Rain latest hour (hover to see other rain measurements)
** Current wind speed in m/s (hover to see current wind gust speed)